Wind_Speed
15 16 17 19 20 20 18 17 17 15 13 11 11 10 10 10 9 7 8 8 7 7 7 6 5 2 2 3 2 3 3 3 3 2 3 2 1 2 1 1 3 4 4 4 4 5 6 8 10
16 17 17 17 16 16 14 11 12 11 10 11 11 10 11 12 11 10 11 11 9 8 8 8 8 7 5 4 5 3 2 2 2 2 2 2 2 3 4 4 5 6 7 8 8 7 7 8 8
10 12 13 14 15 13 11 11 11 10 10 11 11 11 11 11 10 10 12 13 12 11 9 9 9 10 10 9 8 7 7 6 6 6 4 5 6 6 7 8 9 8 9 10 10 12 12 11 12
9 10 13 13 12 12 10 7 8 9 10 11 11 10 10 10 9 9 12 14 13 14 14 12 11 11 12 12 11 11 10 10 10 10 10 9 10 10 11 12 13 13 14 14 15 14 14 14 14
8 9 10 12 10 12 11 9 7 8 8 9 10 10 11 11 12 11 11 13 14 14 16 16 14 13 13 14 15 15 13 13 13 13 14 14 14 14 14 15 16 16 16 16 16 15 13 12 14
9 10 10 11 11 12 11 11 10 9 10 10 10 13 13 12 11 11 11 11 11 13 15 16 17 16 16 16 17 18 18 16 15 15 16 17 17 16 17 18 19 18 17 17 15 13 13 13 16
12 12 11 11 11 11 11 12 12 12 13 13 13 14 15 12 10 10 10 11 11 11 12 13 14 16 17 17 19 20 21 21 20 19 19 19 20 21 22 21 21 22 20 19 20 19 18 17 20
16 15 15 14 14 12 13 14 12 13 13 14 14 14 15 12 10 9 9 10 11 11 12 13 14 15 16 17 19 20 22 24 23 23 22 22 24 25 26 27 27 27 26 26 27 26 26 27 30
20 20 19 18 17 15 14 15 14 13 13 13 12 14 13 12 11 12 12 13 11 11 11 12 14 15 16 17 18 19 21 23 24 26 26 25 25 26 27 27 27 28 29 30 33 34 35 35 36
26 25 25 24 24 23 21 19 17 16 15 14 14 16 14 15 14 13 14 15 16 15 15 15 15 16 16 18 20 22 23 24 26 27 28 28 29 29 29 30 30 29 29 31 33 33 35 37 38
30 29 31 28 28 28 27 26 23 19 18 18 17 17 18 18 17 17 17 16 17 19 18 19 19 18 19 19 20 21 24 27 28 30 30 31 31 31 31 32 32 31 32 33 35 35 36 37 38
32 31 34 31 33 31 29 30 29 26 19 23 23 20 20 22 22 22 20 21 20 20 21 21 20 21 22 22 23 24 24 25 26 27 29 31 33 34 35 35 35 34 35 35 35 36 37 37 37
36 34 36 34 35 32 34 32 32 25 27 31 28 23 24 24 26 26 26 26 24 24 24 25 24 23 23 24 26 26 27 27 25 25 26 28 30 33 34 35 36 37 37 36 38 39 39 38 38
36 35 33 34 33 35 39 35 35 26 33 32 32 30 29 27 29 28 29 29 29 28 28 27 27 28 27 27 28 30 30 30 30 30 29 30 30 32 33 35 36 38 39 40 41 41 42 41 41
36 35 33 26 28 37 42 33 27 30 36 34 35 37 37 32 33 33 34 33 33 32 31 31 31 31 30 30 31 31 31 31 31 30 30 30 30 30 32 34 35 37 39 41 43 43 44 44 45
38 38 34 22 29 38 43 32 24 33 38 35 38 39 41 40 38 38 37 38 36 35 33 35 35 33 33 33 33 33 32 32 32 32 31 31 32 33 33 34 34 36 38 41 42 44 46 47 48
37 42 39 33 31 40 42 43 27 32 36 35 35 37 40 40 39 38 38 39 36 35 35 36 37 35 36 37 38 36 32 32 32 31 31 32 33 34 34 36 38 40 41 43 43 45 46 48 50
42 49 45 42 30 42 48 47 39 36 39 37 32 28 31 35 29 32 37 36 36 36 36 37 36 37 39 40 39 35 33 34 33 32 32 33 33 34 35 36 38 40 41 41 43 45 47 49 50
47 49 51 44 37 48 51 56 51 41 39 35 36 31 27 29 27 33 36 38 34 36 35 36 36 37 39 40 35 33 34 35 35 35 35 35 38 38 36 35 36 37 39 41 41 43 46 48 50
47 49 49 47 41 51 55 58 56 52 42 37 37 33 31 28 28 33 37 39 35 37 36 36 37 38 38 35 34 35 36 38 38 39 39 39 42 39 38 38 36 36 37 38 40 43 44 46 49
45 49 49 54 50 51 54 60 55 50 43 37 35 34 34 34 35 35 37 38 38 39 40 41 41 40 38 39 40 40 40 41 42 41 42 42 39 38 39 40 40 39 38 38 40 42 44 46 47
51 44 51 54 57 59 52 57 48 48 46 41 39 37 35 36 39 39 41 40 40 41 42 44 45 44 41 42 42 44 45 43 42 41 40 40 40 40 41 41 40 40 40 41 41 42 43 45 47
52 50 51 53 59 62 62 63 60 52 45 42 38 38 33 32 35 42 46 48 47 47 46 47 47 44 44 46 46 47 44 45 43 43 43 40 42 44 44 44 45 44 45 46 45 45 44 46 47
53 51 51 56 58 66 59 60 60 59 58 57 55 49 46 42 41 41 43 49 49 48 47 46 47 45 46 47 48 48 46 45 46 45 43 43 42 46 49 52 52 51 50 49 49 47 45 45 47
53 55 57 61 62 66 63 61 63 64 65 67 66 65 61 54 53 47 45 40 46 46 48 50 52 49 48 49 50 46 44 49 48 49 47 48 46 46 52 55 55 54 52 49 47 47 47 49 52
64 64 66 66 70 71 67 75 66 65 67 67 69 71 68 65 64 59 52 51 41 40 42 44 50 53 51 47 47 48 50 52 51 52 51 45 42 43 49 53 55 54 51 51 51 51 54 55 55
63 65 61 69 67 71 73 75 72 69 68 68 68 70 72 69 64 61 40 36 43 30 35 40 45 49 51 52 55 52 52 54 52 53 51 48 42 43 48 51 53 53 52 54 56 59 58 58 59
63 60 62 67 71 71 74 73 78 69 68 64 63 66 68 69 63 53 30 38 41 43 37 38 48 48 53 56 56 55 55 55 54 54 52 51 50 48 48 54 55 55 55 56 57 59 58 58 59
66 63 62 58 64 71 72 70 58 52 53 58 61 69 68 63 50 37 40 42 50 51 49 46 56 60 58 54 54 57 58 55 54 56 57 56 53 51 51 53 54 54 56 58 61 62 66 68 68
66 66 66 70 66 66 65 62 46 42 50 58 62 63 65 65 59 59 57 63 62 56 61 58 53 61 62 56 56 57 56 56 58 58 57 53 49 49 50 53 55 57 59 62 63 65 69 71 76
Wind_Direction
303 306 309 311 311 310 316 321 316 310 318 326 327 324 314 313 319 306 295 297 304 304 307 309 320 326 328 331 346 60 86 100 98 95 93 107 17 27 23 330 275 290 291 276 270 277 284 282 284
304 306 309 309 312 323 329 323 311 318 332 331 326 321 308 303 298 298 289 280 285 289 292 290 290 295 286 281 277 263 225 215 229 221 216 233 246 267 277 270 275 291 298 300 302 295 288 285 279
329 328 322 320 328 338 332 329 326 341 342 336 327 318 306 302 299 288 280 275 266 266 266 269 273 271 272 266 264 269 264 247 242 256 257 268 278 280 276 277 278 274 274 278 279 282 283 279 278
344 341 335 341 350 341 349 333 334 349 350 354 351 343 326 316 301 283 274 268 263 258 261 264 264 265 267 269 267 258 256 258 257 262 262 258 258 263 270 272 273 273 274 273 272 271 274 280 284
349 345 338 346 1 344 354 339 340 348 347 354 350 347 345 341 324 308 291 279 271 262 260 260 262 266 268 268 268 267 260 258 262 264 262 263 262 260 261 264 266 268 268 269 268 270 272 281 285
339 347 340 338 348 342 347 337 348 354 346 351 351 337 338 347 333 324 310 295 282 274 270 268 267 267 269 267 267 265 261 255 258 264 269 273 275 274 272 271 272 272 270 266 258 257 268 280 286
329 333 337 337 331 321 329 331 341 345 338 339 343 333 329 325 334 332 323 314 301 284 274 270 268 271 269 264 262 259 258 259 258 259 264 268 271 271 272 273 276 273 268 262 260 262 266 271 279
325 329 332 332 330 327 329 327 328 328 330 331 338 330 325 325 321 324 327 323 312 302 291 282 273 269 268 263 255 256 255 253 257 262 262 262 263 265 267 266 265 267 267 263 263 264 265 270 276
311 314 318 321 324 325 324 320 320 318 320 329 333 335 327 324 317 308 306 307 307 308 302 297 290 285 279 272 268 265 261 259 259 260 263 264 266 262 259 259 263 263 263 263 262 263 262 264 270
301 303 303 307 308 309 310 309 310 310 305 309 309 311 312 315 316 311 308 306 301 292 288 291 291 291 290 284 276 271 266 264 262 262 261 264 266 264 265 265 264 262 264 267 268 267 268 267 268
294 296 297 299 298 299 300 300 298 300 294 294 298 297 303 303 303 302 303 303 300 296 291 285 285 283 282 283 281 276 271 268 265 265 266 267 266 267 266 266 266 267 267 269 271 272 272 271 272
293 293 292 295 294 293 291 290 290 298 282 282 286 287 291 293 295 297 298 295 296 295 290 289 288 284 280 277 276 276 276 275 274 274 273 272 270 270 268 268 269 269 270 269 267 268 267 268 268
291 288 290 290 292 290 285 285 288 296 271 282 287 282 281 284 284 286 290 290 291 288 287 284 287 284 285 285 279 276 276 275 276 276 276 276 275 274 274 275 274 272 272 271 272 268 269 267 269
290 288 284 286 290 286 284 282 289 286 281 281 283 280 278 277 276 280 280 282 284 283 283 283 282 280 284 285 283 280 277 274 273 273 277 278 278 279 279 279 278 276 274 273 271 269 268 267 267
290 289 290 298 286 282 279 284 289 281 279 279 279 279 278 276 274 277 278 279 279 278 279 280 277 279 280 283 285 280 279 276 274 272 272 274 276 277 278 279 278 277 275 273 270 268 265 266 265
289 291 292 275 271 275 280 287 282 277 280 281 279 276 277 278 278 278 281 279 278 277 275 274 278 278 279 282 284 280 277 274 272 272 272 273 274 276 277 278 278 279 277 275 272 269 266 265 265
294 291 283 277 280 284 283 284 281 275 277 281 282 272 272 276 278 281 276 277 279 275 272 271 274 276 278 281 282 278 277 274 271 273 275 278 280 281 282 280 280 277 279 276 273 269 267 266 264
284 282 285 287 288 281 281 281 279 275 277 279 283 283 270 270 278 271 274 275 274 272 271 273 274 276 277 281 282 278 273 271 270 273 278 282 282 282 284 281 279 278 275 275 273 270 268 265 264
281 283 285 291 292 284 281 279 279 274 271 280 282 284 283 280 273 271 272 272 274 274 273 272 277 277 278 278 277 274 269 269 272 275 279 283 288 288 284 283 281 278 276 273 272 271 270 268 265
279 283 285 285 288 279 282 281 282 283 282 278 278 278 279 281 279 275 274 277 275 271 273 275 273 278 278 270 273 274 271 272 274 277 281 286 289 285 281 281 280 279 277 275 274 273 271 269 265
278 280 286 283 280 273 281 283 285 285 290 287 282 276 276 274 273 272 273 276 272 272 272 272 271 275 274 266 273 276 276 275 276 281 285 288 287 286 285 284 282 279 277 278 277 276 274 272 270
274 278 275 279 281 282 275 292 284 289 289 289 281 275 271 273 276 273 275 273 267 264 267 273 275 275 273 265 269 273 274 277 279 282 283 285 286 286 288 287 283 279 276 276 278 278 276 275 273
277 277 275 274 276 277 279 286 297 296 293 284 280 272 268 270 266 271 274 273 271 270 269 271 272 271 268 265 270 272 273 273 278 280 283 285 286 287 286 285 283 280 279 280 281 282 280 277 273
277 279 278 274 273 272 279 286 291 295 290 294 290 283 281 275 266 266 267 270 271 272 270 267 265 264 264 265 266 266 268 272 275 277 280 282 283 282 281 281 282 282 283 285 285 285 281 279 276
280 277 276 274 274 278 280 276 283 285 291 290 289 288 287 283 282 278 277 263 261 267 268 268 265 266 265 263 263 266 271 274 276 279 282 285 283 275 275 277 280 281 282 283 282 281 280 276 275
278 279 278 280 282 280 275 276 286 286 285 285 286 288 290 288 290 288 289 284 264 248 249 255 260 261 261 263 266 269 273 275 279 282 284 284 276 270 269 272 275 278 281 283 283 283 280 278 277
279 277 278 273 271 271 274 277 280 284 282 282 284 284 285 287 289 289 285 262 245 236 267 252 247 251 254 259 261 266 269 272 277 279 280 281 276 270 268 268 270 273 275 278 280 281 280 281 285
285 282 275 271 270 269 274 276 280 285 289 290 283 280 280 280 284 289 249 237 243 263 260 246 248 254 253 257 259 263 267 271 272 273 277 280 275 272 268 266 267 268 273 274 275 274 276 279 283
280 271 267 268 271 275 273 268 286 284 287 276 277 278 279 284 284 272 251 249 246 270 268 267 247 252 257 261 264 264 269 271 274 276 278 279 276 273 270 268 271 273 274 276 278 276 277 282 287
265 264 266 269 273 275 275 270 284 273 267 270 273 278 281 279 270 266 261 264 261 263 265 266 256 253 263 268 263 263 266 269 272 273 273 273 272 271 272 273 273 275 275 278 281 282 282 285 285
Height
5885 5884 5883 5882 5882 5879 5878 5878 5874 5873 5872 5871 5871 5871 5870 5870 5870 5872 5868 5867 5867 5867 5866 5867 5865 5866 5865 5865 5865 5865 5865 5865 5865 5865 5866 5866 5867 5867 5868 5869 5869 5870 5870 5871 5871 5872 5872 5872 5872
5883 5882 5881 5879 5879 5877 5876 5875 5873 5872 5871 5869 5869 5869 5868 5868 5867 5868 5867 5866 5866 5865 5865 5865 5865 5865 5865 5865 5864 5865 5864 5864 5864 5865 5865 5865 5866 5866 5867 5868 5868 5869 5868 5868 5869 5870 5870 5870 5870
5882 5880 5879 5877 5875 5875 5875 5873 5871 5870 5869 5868 5867 5866 5866 5865 5865 5864 5864 5863 5864 5864 5864 5864 5863 5864 5864 5864 5863 5863 5864 5864 5864 5864 5864 5864 5863 5863 5865 5865 5866 5867 5867 5867 5868 5868 5869 5869 5869
5881 5880 5878 5876 5874 5873 5874 5872 5870 5869 5868 5867 5866 5865 5864 5863 5862 5862 5861 5860 5861 5861 5861 5862 5862 5862 5861 5861 5862 5862 5862 5862 5862 5862 5862 5863 5863 5863 5864 5864 5865 5865 5864 5865 5866 5867 5867 5867 5867
5880 5879 5877 5875 5875 5872 5871 5871 5870 5868 5867 5866 5865 5864 5863 5862 5860 5860 5859 5858 5858 5858 5858 5858 5859 5859 5859 5859 5860 5860 5861 5860 5860 5860 5861 5861 5862 5863 5863 5863 5864 5864 5863 5863 5863 5863 5864 5864 5864
5880 5879 5877 5875 5874 5872 5872 5871 5869 5868 5866 5866 5865 5862 5862 5861 5859 5858 5857 5856 5856 5855 5855 5855 5855 5856 5856 5857 5857 5857 5858 5858 5858 5858 5858 5858 5859 5859 5860 5860 5860 5860 5861 5861 5861 5861 5861 5860 5861
5879 5878 5876 5875 5873 5872 5871 5870 5868 5866 5865 5865 5864 5862 5860 5859 5859 5857 5856 5855 5854 5853 5852 5852 5852 5852 5852 5853 5853 5854 5854 5854 5855 5855 5855 5856 5856 5856 5856 5856 5856 5856 5857 5858 5858 5858 5858 5858 5858
5877 5876 5874 5873 5872 5871 5869 5868 5867 5866 5865 5863 5862 5860 5858 5857 5857 5855 5854 5853 5852 5850 5850 5849 5848 5848 5848 5848 5849 5849 5850 5850 5851 5851 5852 5852 5852 5851 5852 5852 5852 5852 5852 5852 5853 5853 5853 5854 5854
5875 5874 5872 5871 5870 5869 5867 5866 5865 5864 5863 5862 5860 5858 5856 5854 5853 5853 5852 5850 5849 5848 5847 5846 5846 5845 5844 5844 5843 5843 5843 5844 5844 5845 5846 5847 5846 5847 5848 5847 5846 5847 5847 5847 5847 5847 5847 5847 5847
5871 5870 5869 5868 5866 5865 5865 5863 5862 5861 5859 5859 5857 5855 5854 5852 5850 5849 5848 5846 5845 5844 5843 5842 5842 5841 5840 5840 5839 5839 5838 5838 5838 5839 5840 5840 5840 5840 5839 5839 5839 5839 5839 5840 5840 5840 5840 5840 5840
5868 5866 5863 5863 5862 5860 5860 5858 5857 5856 5853 5854 5853 5851 5849 5848 5847 5845 5844 5843 5841 5840 5839 5838 5837 5837 5836 5835 5835 5834 5833 5833 5833 5833 5833 5833 5833 5833 5833 5832 5832 5832 5833 5833 5832 5832 5832 5831 5831
5862 5860 5857 5858 5855 5854 5853 5852 5851 5852 5848 5847 5846 5846 5845 5843 5842 5841 5840 5839 5838 5836 5835 5834 5833 5832 5831 5831 5829 5828 5828 5827 5827 5826 5826 5826 5826 5826 5825 5825 5826 5826 5826 5825 5825 5825 5824 5824 5823
5855 5855 5851 5850 5849 5847 5844 5844 5844 5847 5839 5838 5840 5840 5839 5838 5836 5835 5834 5833 5832 5831 5830 5828 5827 5826 5825 5825 5823 5822 5822 5821 5820 5820 5819 5819 5818 5817 5817 5816 5816 5816 5816 5816 5816 5816 5816 5817 5816
5847 5846 5845 5844 5843 5839 5836 5838 5836 5840 5833 5833 5832 5833 5832 5832 5830 5829 5827 5827 5826 5824 5823 5822 5821 5819 5818 5817 5816 5815 5815 5814 5814 5814 5813 5812 5811 5810 5809 5808 5808 5808 5808 5807 5807 5807 5808 5808 5808
5836 5836 5837 5840 5836 5828 5826 5831 5833 5829 5825 5826 5824 5824 5823 5824 5823 5822 5821 5820 5819 5817 5816 5814 5812 5812 5811 5809 5808 5807 5807 5806 5805 5805 5805 5804 5803 5802 5801 5800 5800 5799 5798 5798 5798 5798 5798 5798 5799
5827 5826 5828 5834 5827 5819 5815 5821 5827 5820 5816 5818 5817 5816 5813 5814 5814 5813 5811 5810 5810 5809 5809 5806 5805 5803 5802 5802 5800 5799 5798 5798 5796 5797 5797 5796 5795 5794 5793 5793 5792 5791 5790 5789 5788 5788 5788 5788 5788
5821 5813 5814 5819 5820 5811 5807 5806 5819 5814 5809 5809 5808 5807 5806 5806 5805 5804 5802 5801 5800 5799 5799 5798 5796 5795 5793 5792 5791 5790 5789 5789 5788 5788 5788 5788 5787 5786 5785 5784 5783 5782 5780 5779 5778 5778 5777 5777 5777
5808 5800 5803 5805 5815 5803 5794 5794 5802 5805 5801 5801 5801 5799 5798 5797 5799 5794 5792 5793 5791 5789 5789 5788 5787 5786 5784 5782 5781 5781 5780 5779 5779 5779 5779 5778 5777 5776 5775 5774 5772 5770 5769 5768 5767 5766 5766 5766 5765
5796 5795 5791 5797 5802 5789 5785 5777 5783 5792 5791 5792 5790 5791 5789 5787 5789 5786 5784 5781 5782 5780 5779 5779 5778 5776 5774 5773 5772 5771 5770 5769 5770 5769 5769 5768 5767 5766 5764 5763 5761 5760 5758 5756 5755 5754 5754 5753 5753
5790 5786 5784 5783 5789 5777 5769 5764 5768 5773 5782 5784 5781 5782 5781 5779 5778 5776 5773 5771 5772 5770 5769 5769 5768 5766 5764 5764 5763 5762 5760 5759 5759 5758 5758 5758 5756 5754 5753 5751 5750 5748 5747 5745 5743 5742 5742 5742 5741
5784 5778 5777 5770 5770 5766 5759 5743 5756 5763 5767 5773 5774 5772 5771 5769 5767 5766 5763 5761 5760 5761 5758 5757 5756 5755 5755 5754 5753 5752 5750 5749 5749 5748 5748 5746 5745 5743 5742 5740 5738 5736 5735 5734 5733 5732 5732 5731 5731
5768 5774 5766 5763 5758 5750 5755 5724 5744 5754 5756 5760 5760 5760 5760 5759 5758 5756 5753 5751 5748 5747 5747 5747 5745 5743 5742 5742 5742 5740 5739 5738 5737 5737 5735 5734 5732 5731 5729 5727 5726 5725 5724 5722 5721 5720 5720 5719 5719
5761 5760 5758 5756 5750 5743 5736 5733 5728 5738 5741 5742 5745 5746 5748 5748 5747 5746 5742 5739 5738 5735 5734 5733 5732 5731 5731 5730 5728 5726 5726 5724 5725 5724 5724 5723 5720 5718 5716 5714 5713 5712 5710 5709 5708 5707 5706 5706 5705
5748 5746 5746 5742 5739 5731 5737 5736 5714 5722 5724 5727 5731 5735 5734 5734 5732 5732 5731 5728 5724 5722 5721 5720 5718 5718 5718 5717 5714 5713 5712 5711 5712 5712 5713 5712 5710 5706 5702 5700 5699 5698 5697 5695 5694 5694 5693 5692 5691
5737 5733 5726 5720 5720 5723 5726 5724 5714 5713 5712 5714 5712 5711 5718 5719 5713 5711 5712 5710 5710 5710 5708 5707 5704 5705 5704 5702 5700 5700 5699 5698 5699 5700 5700 5700 5698 5696 5691 5687 5685 5684 5684 5682 5681 5680 5678 5677 5676
5720 5718 5712 5702 5707 5706 5708 5698 5702 5707 5706 5702 5697 5696 5696 5697 5698 5699 5696 5693 5692 5691 5692 5694 5693 5692 5691 5689 5690 5688 5688 5687 5686 5685 5685 5685 5683 5683 5679 5677 5674 5673 5672 5671 5670 5668 5666 5663 5660
5707 5700 5704 5684 5688 5681 5686 5689 5693 5693 5690 5689 5690 5685 5683 5683 5680 5681 5680 5681 5678 5679 5681 5679 5678 5678 5678 5677 5675 5675 5674 5673 5672 5671 5669 5669 5669 5668 5665 5664 5663 5662 5660 5658 5656 5655 5652 5650 5647
5685 5687 5679 5670 5662 5659 5665 5667 5669 5683 5679 5677 5675 5668 5667 5667 5665 5663 5664 5665 5665 5663 5667 5668 5669 5667 5666 5664 5664 5663 5661 5660 5658 5656 5655 5654 5653 5653 5652 5650 5649 5649 5647 5644 5642 5640 5637 5635 5632
5669 5659 5659 5652 5646 5637 5633 5640 5671 5662 5662 5660 5661 5655 5652 5651 5653 5653 5651 5653 5652 5652 5651 5650 5652 5651 5651 5650 5650 5648 5647 5645 5643 5641 5639 5637 5637 5637 5636 5635 5634 5633 5632 5630 5628 5626 5623 5619 5615
5642 5640 5641 5631 5630 5623 5614 5612 5655 5658 5646 5643 5643 5641 5639 5637 5639 5640 5638 5634 5634 5636 5634 5634 5633 5635 5634 5634 5633 5632 5632 5629 5628 5628 5625 5622 5622 5620 5620 5619 5617 5616 5615 5613 5612 5609 5606 5602 5597